Zurück zum Katalog

METEOR 2-11 DEB

AktivPO
NORAD 40317·DEBRIS·🇷🇺 Russia

Gestartet Jul 5, 1984 von Plesetsk Cosmodrome

Loading…

Nächste Überflüge (nächste 24 Stunden)

TLE

AktuellSource: Space-Track

Epoche: Sep 13, 2026, 10:24 UTC

1 40317U 84072C   26256.43373203  .00001458  00000-0  98769-3 0  9992
2 40317  82.5168 293.6948 0011904 156.1115 204.0608 13.99603111598380

Verfolge METEOR 2-11 DEB in Echtzeit mit AllMySat

Download on the App Store